CW2099 Weather Reports


Display with metric or nautical units.
time (UTC)temp
F
wind
direction
speed
MPH
gust
MPH
rain 1hr
in
rain 24hr
in
rain mn
in
humidity
%
barometer
mb
20260904174527 66 265 1.0 3.0 0.00 0.06 0.05 87 1012.4
20260904173021 66 265 2.0 6.0 0.00 0.06 0.05 87 1012.4
20260904170020 66 265 2.0 6.0 0.00 0.10 0.05 87 1012.4
20260904164520 66 270 1.0 2.0 0.00 0.10 0.05 87 1012.4
20260904163024 66 270 1.0 4.0 0.00 0.10 0.05 87 1012.3
20260904160021 66 283 1.0 3.0 0.00 0.10 0.05 87 1012.2
20260904154517 66 283 1.0 3.0 0.00 0.10 0.05 87 1012.2
20260904153014 66 271 1.0 3.0 0.00 0.10 0.05 87 1012.3
20260904150015 65 263 2.0 6.0 0.00 0.10 0.05 87 1012.2
20260904144510 65 286 0.0 2.0 0.00 0.10 0.05 87 1012.2
20260904143011 65 286 1.0 3.0 0.00 0.10 0.05 87 1012.2
20260904140006 64 275 0.0 2.0 0.00 0.10 0.05 87 1012.3
20260904134507 64 275 0.0 3.0 0.00 0.10 0.05 87 1012.5
20260904133006 64 283 0.0 2.0 0.00 0.10 0.05 87 1012.4
20260904130006 63 277 0.0 2.0 0.00 0.10 0.05 87 1012.3
20260904124505 63 281 2.0 4.0 0.00 0.10 0.05 86 1012.2
20260904123005 63 292 2.0 3.0 0.00 0.10 0.05 86 1012.2
20260904120007 63 281 0.0 5.0 0.00 0.10 0.05 86 1012.2
20260904114503 62 268 3.0 7.0 0.00 0.10 0.05 86 1012.1
20260904113002 62 267 2.0 7.0 0.01 0.10 0.05 86 1011.8
20260904110001 62 268 2.0 6.0 0.01 0.10 0.05 86 1011.2
20260904104611 62 265 4.0 8.0 0.01 0.10 0.05 86 1011.9
20260904103106 63 260 4.0 10.0 0.02 0.10 0.05 85 1012.0
20260904100058 63 288 3.0 7.0 0.01 0.09 0.04 85 1012.0
20260904094556 63 279 5.0 9.0 0.04 0.09 0.04 85 1011.7
20260904093056 63 274 4.0 11.0 0.03 0.08 0.03 85 1012.3
20260904090051 63 257 7.0 12.0 0.03 0.08 0.03 84 1012.1
20260904084549 64 266 8.0 12.0 0.00 0.05 0.00 83 1012.5
20260904083055 64 259 1.0 8.0 0.00 0.05 0.00 84 1012.4
20260904080159 64 286 2.0 4.0 0.00 0.05 0.00 84 1011.7
20260904074557 64 290 1.0 4.0 0.00 0.05 0.00 84 1011.3
20260904073047 64 290 0.0 3.0 0.00 0.05 0.00 84 1011.7
20260904070043 64 276 3.0 6.0 0.00 0.05 0.00 83 1011.9
20260904064544 63 289 0.0 2.0 0.00 0.05 0.00 83 1012.4
20260904063054 63 289 0.0 1.0 0.00 0.05 0.00 81 1012.4
20260904061642 63 290 1.0 3.0 0.00 0.05 0.00 80 1011.9
20260904060105 63 289 0.0 3.0 0.00 0.05 0.00 80 1012.1
20260904054540 64 282 0.0 5.0 0.00 0.05 0.00 82 1012.0
20260904053040 64 292 2.0 4.0 0.01 0.05 0.00 83 1011.8
20260904051636 64 298 1.0 5.0 0.01 0.05 0.00 84 1012.5
20260904050033 64 276 3.0 10.0 0.01 0.05 0.05 84 1013.2
20260904044542 64 273 5.0 8.0 0.01 0.05 0.05 83 1013.2
20260904043034 64 295 3.0 6.0 0.01 0.05 0.05 82 1013.0
20260904040030 65 284 1.0 5.0 0.00 0.04 0.04 81 1013.3
20260904034531 65 276 2.0 7.0 0.00 0.04 0.04 80 1013.2
20260904033028 65 267 4.0 9.0 0.00 0.04 0.04 81 1013.3
20260904030029 65 291 0.0 7.0 0.00 0.04 0.04 81 1012.8
20260904024529 65 285 0.0 2.0 0.00 0.04 0.04 79 1013.2
20260904023028 66 286 3.0 4.0 0.00 0.04 0.04 79 1013.1
20260904021627 66 285 1.0 3.0 0.00 0.04 0.04 78 1013.3
20260904020028 66 295 0.0 2.0 0.00 0.04 0.04 78 1013.3
20260904014527 66 335 1.0 3.0 0.00 0.04 0.04 77 1013.4
20260904013032 66 259 6.0 9.0 0.00 0.04 0.04 78 1012.8
20260904010040 66 355 0.0 3.0 0.00 0.04 0.04 77 1013.3
20260904004526 66 292 0.0 2.0 0.00 0.04 0.04 76 1013.1
20260904003025 67 292 1.0 3.0 0.00 0.04 0.04 74 1013.1
20260904000025 67 295 1.0 8.0 0.00 0.04 0.04 72 1012.6
20260903234533 67 275 3.0 6.0 0.00 0.04 0.04 70 1012.6
20260903233025 67 319 1.0 2.0 0.00 0.04 0.04 69 1012.7
20260903231625 68 323 0.0 3.0 0.00 0.04 0.04 69 1012.6
20260903230025 68 294 0.0 3.0 0.00 0.04 0.04 69 1012.4
20260903224527 68 296 2.0 4.0 0.00 0.04 0.04 68 1012.2
20260903223033 68 295 0.0 4.0 0.00 0.04 0.04 67 1012.0
20260903221623 68 296 2.0 5.0 0.00 0.04 0.04 67 1011.9
20260903220035 68 293 1.0 5.0 0.00 0.04 0.04 66 1012.0
20260903214522 68 355 1.0 3.0 0.00 0.04 0.04 67 1012.2
20260903213033 68 304 0.0 3.0 0.00 0.04 0.04 66 1012.4
20260903211625 68 325 0.0 3.0 0.00 0.04 0.04 67 1012.4
20260903210022 68 292 0.0 4.0 0.00 0.04 0.04 68 1012.4
20260903204521 68 292 0.0 4.0 0.00 0.04 0.04 68 1012.4
20260903203020 68 314 0.0 8.0 0.00 0.04 0.04 68 1012.3
20260903201620 68 292 0.0 3.0 0.00 0.04 0.04 67 1012.4
20260903200020 69 294 2.0 5.0 0.00 0.04 0.04 67 1012.3
20260903194519 69 273 5.0 7.0 0.00 0.04 0.04 66 1012.3
20260903193018 69 291 6.0 8.0 0.00 0.04 0.04 65 1012.3
20260903190015 68 291 5.0 10.0 0.00 0.04 0.04 67 1011.8
20260903184513 68 288 4.0 11.0 0.00 0.04 0.04 68 1012.1
20260903183113 67 286 5.0 10.0 0.00 0.04 0.04 69 1012.2
20260903181611 67 285 3.0 4.0 0.00 0.04 0.04 69 1012.5
20260903180012 67 273 3.0 6.0 0.00 0.04 0.04 70 1012.6